User: anonymous   Login
Location: Trondheim
(63.4170°N, 10.4170°E)
Time: 17:32:22
(UTC+02:00)
Language:

Iridium 82 - Orbit

View from above orbital plane
View from above orbital plane
View from above satellite
View from above satellite

Ground track
Ground track

The orbit data is extracted from the following two-line orbital elements,

1 25467U 98051A   16121.56270151  .00000249  00000-0  81970-4 0  9999
2 25467  86.4037 194.6108 0002412 104.1171 256.0292 14.34218120927478
Epoch (UTC): 30 April 2016 13:30:17
Eccentricity: 0.0002412
inclination: 86.4037°
perigee height: 776 km
apogee height: 779 km
right ascension of ascending node: 194.6108°
argument of perigee: 104.1171°
revolutions per day: 14.34218120
mean anomaly at epoch: 256.0292°
orbit number at epoch: 92747

The dashed part of the orbit path shows where the satellite is in the earth's shadow,  

DLR